Indianapolis Mount Comfort, IN

1:33 PM EDT on August 17, 2019 (GMT -0400)
Mount Comfort

Weather History for KMQJ - May, 2019

Change the Weather History Date:

Tuesday, May 21, 2019

  Actual Average (KEYE) Record (KEYE)
Temperature  
Mean Temperature 50 °F -  
Max Temperature 55 °F 69 °F 84 °F (2004)
Min Temperature 44 °F 51 °F 36 °F (2002)
Degree Days  
Heating Degree Days 16    
Moisture  
Dew Point 48 °F    
Average Humidity 92    
Maximum Humidity 100    
Minimum Humidity 82    
Precipitation  
Precipitation 0.00 in - - ()
Sea Level Pressure  
Sea Level Pressure 30.06 in    
Wind  
Wind Speed 10 mph (East)    
Max Wind Speed 20 mph    
Max Gust Speed 24 mph    
Visibility 10 miles    
Events      
Averages and records for this station are not official NWS values.
T = Trace of Precipitation, MM = Missing Value Source: NWS Daily Summary

Daily Weather History Graph

Daily Weather History Graph

Search for Another Location

Airport or City:

Astronomy

May. 21, 2019 Rise Set
Actual Time 6:23 AM EDT 8:56 PM EDT
Civil Twilight 5:52 AM EDT 9:28 PM EDT
Nautical Twilight 5:14 AM EDT 10:06 PM EDT
Astronomical Twilight 4:30 AM EDT 10:50 PM EDT
Moon 11:52 PM EDT (5/21) 8:39 AM EDT (5/21)
Length of Visible Light 15h 35m
Length of Day
14h 33m
Waning Gibbous, 91% of the Moon is Illuminated
May 21
Waning Gibbous
May 26
Last Quarter
Jun 3
New
Jun 10
First Quarter
Jun 17
Full

Hourly Weather History & Observations

Time (EDT) Temp. Windchill Dew Point Humidity Pressure Visibility Wind Dir Wind Speed Gust Speed Precip Events Conditions
12:15 AM 44.6 °F 40.2 °F 44.6 °F 100% 30.11 in 10.0 mi NNE 8.1 mph - N/A   Clear
12:35 AM 44.6 °F 41.4 °F 44.6 °F 100% 30.10 in 10.0 mi NNE 5.8 mph - N/A   Clear
12:55 AM 44.6 °F 42.2 °F 44.6 °F 100% 30.12 in 10.0 mi North 4.6 mph - N/A   Clear
1:15 AM 44.6 °F 43.1 °F 44.6 °F 100% 30.13 in 10.0 mi NNE 3.5 mph - N/A   Clear
1:35 AM 44.6 °F - 44.6 °F 100% 30.12 in 10.0 mi Calm Calm - N/A   Clear
1:55 AM 44.6 °F 41.4 °F 44.6 °F 100% 30.10 in 10.0 mi NNE 5.8 mph - N/A   Clear
2:15 AM 44.6 °F 40.2 °F 44.6 °F 100% 30.09 in 10.0 mi NE 8.1 mph - N/A   Clear
2:35 AM 44.6 °F 41.4 °F 44.6 °F 100% 30.10 in 10.0 mi ENE 5.8 mph - N/A   Clear
2:55 AM 46.4 °F 41.5 °F 44.6 °F 93% 30.09 in 10.0 mi NE 10.4 mph - N/A   Clear
3:16 AM 46.4 °F 41.9 °F 44.6 °F 93% 30.10 in 10.0 mi NNE 9.2 mph - N/A   Clear
3:35 AM 46.4 °F 41.9 °F 44.6 °F 93% 30.09 in 10.0 mi NE 9.2 mph - N/A   Clear
3:55 AM 46.4 °F 41.9 °F 44.6 °F 93% 30.09 in 10.0 mi ENE 9.2 mph - N/A   Clear
4:15 AM 44.6 °F 39.7 °F 44.6 °F 100% 30.09 in 10.0 mi ENE 9.2 mph - N/A   Clear
4:35 AM 44.6 °F 40.2 °F 44.6 °F 100% 30.09 in 10.0 mi NE 8.1 mph - N/A   Clear
4:55 AM 46.4 °F 42.9 °F 44.6 °F 93% 30.10 in 10.0 mi ENE 6.9 mph - N/A   Clear
5:15 AM 44.6 °F 40.2 °F 44.6 °F 100% 30.10 in 10.0 mi ENE 8.1 mph - N/A   Clear
5:35 AM 46.4 °F 40.7 °F 44.6 °F 93% 30.08 in 10.0 mi East 12.7 mph 16.1 mph N/A   Clear
5:55 AM 46.4 °F 41.5 °F 44.6 °F 93% 30.09 in 10.0 mi East 10.4 mph - N/A   Clear
6:15 AM 46.4 °F 40.7 °F 44.6 °F 93% 30.11 in 10.0 mi East 12.7 mph - N/A   Clear
6:35 AM 46.4 °F 42.9 °F 44.6 °F 93% 30.12 in 10.0 mi East 6.9 mph - N/A   Clear
6:55 AM 46.4 °F 41.5 °F 44.6 °F 93% 30.11 in 10.0 mi East 10.4 mph - N/A   Scattered Clouds
7:15 AM 46.4 °F 45.2 °F 46.4 °F 100% 30.14 in 10.0 mi East 3.5 mph - N/A   Mostly Cloudy
7:35 AM 46.4 °F 44.3 °F 46.4 °F 100% 30.14 in 10.0 mi ENE 4.6 mph - N/A   Scattered Clouds
7:55 AM 46.4 °F 41.9 °F 46.4 °F 100% 30.12 in 10.0 mi ENE 9.2 mph - N/A   Clear
8:16 AM 48.2 °F - 46.4 °F 93% 30.13 in 10.0 mi East 9.2 mph - N/A   Clear
8:35 AM 48.2 °F - 46.4 °F 93% 30.11 in 10.0 mi East 10.4 mph - N/A   Scattered Clouds
8:55 AM 48.2 °F - 46.4 °F 93% 30.11 in 10.0 mi East 11.5 mph - N/A   Scattered Clouds
9:15 AM 50.0 °F - 46.4 °F 87% 30.12 in 10.0 mi East 11.5 mph - N/A   Scattered Clouds
9:35 AM 50.0 °F - 48.2 °F 94% 30.09 in 10.0 mi East 17.3 mph 23.0 mph N/A   Mostly Cloudy
9:55 AM 51.8 °F - 46.4 °F 82% 30.09 in 10.0 mi ESE 17.3 mph 24.2 mph N/A   Overcast
10:15 AM 51.8 °F - 48.2 °F 88% 30.08 in 10.0 mi ESE 12.7 mph 23.0 mph N/A   Overcast
10:35 AM 53.6 °F - 48.2 °F 82% 30.09 in 10.0 mi ESE 12.7 mph 24.2 mph N/A   Mostly Cloudy
10:55 AM 53.6 °F - 48.2 °F 82% 30.09 in 10.0 mi ESE 17.3 mph 23.0 mph N/A   Mostly Cloudy
11:15 AM 53.6 °F - 48.2 °F 82% 30.10 in 10.0 mi SE 17.3 mph - N/A   Overcast
11:35 AM 53.6 °F - 48.2 °F 82% 30.09 in 10.0 mi SE 13.8 mph 20.7 mph N/A   Overcast
11:55 AM 53.6 °F - 48.2 °F 82% 30.10 in 10.0 mi ESE 11.5 mph 18.4 mph N/A   Overcast
12:15 PM 53.6 °F - 50.0 °F 88% 30.10 in 10.0 mi ESE 13.8 mph - N/A   Overcast
12:35 PM 55.4 °F - 50.0 °F 82% 30.09 in 10.0 mi East 15.0 mph - N/A   Overcast
12:56 PM 55.4 °F - 50.0 °F 82% 30.08 in 10.0 mi East 18.4 mph - N/A   Overcast
1:15 PM 55.4 °F - 50.0 °F 82% 30.09 in 10.0 mi ESE 10.4 mph - N/A   Overcast
1:35 PM 55.4 °F - 50.0 °F 82% 30.08 in 10.0 mi ESE 12.7 mph - N/A   Overcast
1:56 PM 55.4 °F - 50.0 °F 82% 30.08 in 10.0 mi East 10.4 mph - N/A   Overcast
2:15 PM 53.6 °F - 51.8 °F 94% 30.07 in 10.0 mi ESE 10.4 mph - N/A   Overcast
2:35 PM 53.6 °F - 51.8 °F 94% 30.07 in 10.0 mi East 11.5 mph - N/A   Overcast
2:55 PM 53.6 °F - 51.8 °F 94% 30.06 in 10.0 mi East 10.4 mph - N/A   Overcast
3:15 PM 53.6 °F - 51.8 °F 94% 30.06 in 10.0 mi ENE 11.5 mph - N/A   Overcast
3:35 PM 55.4 °F - 51.8 °F 88% 30.06 in 10.0 mi East 10.4 mph 17.3 mph N/A   Overcast
3:55 PM 55.4 °F - 51.8 °F 88% 30.06 in 10.0 mi East 8.1 mph - N/A   Overcast
4:15 PM 55.4 °F - 53.6 °F 94% 30.06 in 7.0 mi East 9.2 mph - N/A   Overcast
4:35 PM 55.4 °F - 53.6 °F 94% 30.05 in 10.0 mi East 12.7 mph - N/A   Overcast
4:55 PM 53.6 °F - 53.6 °F 100% 30.05 in 7.0 mi East 9.2 mph - N/A   Overcast
5:15 PM 53.6 °F - 53.6 °F 100% 30.04 in 10.0 mi East 10.4 mph - N/A   Overcast
5:35 PM 53.6 °F - 53.6 °F 100% 30.04 in 10.0 mi East 8.1 mph - N/A   Overcast
5:55 PM 53.6 °F - 53.6 °F 100% 30.04 in 7.0 mi East 12.7 mph - N/A   Overcast
6:15 PM 51.8 °F - 51.8 °F 100% 30.03 in 10.0 mi East 18.4 mph 21.9 mph N/A   Overcast
6:36 PM 51.8 °F - 51.8 °F 100% 30.01 in 10.0 mi East 17.3 mph 23.0 mph N/A   Overcast
6:55 PM 51.8 °F - 51.8 °F 100% 30.01 in 10.0 mi East 19.6 mph 23.0 mph N/A   Overcast
7:15 PM 51.8 °F - 51.8 °F 100% 30.00 in 10.0 mi East 17.3 mph 24.2 mph N/A   Mostly Cloudy
7:35 PM 51.8 °F - 51.8 °F 100% 30.00 in 10.0 mi East 13.8 mph - N/A   Scattered Clouds
7:55 PM 51.8 °F - 50.0 °F 94% 29.99 in 10.0 mi East 16.1 mph - N/A   Scattered Clouds
8:15 PM 51.8 °F - 50.0 °F 94% 29.99 in 10.0 mi East 12.7 mph 19.6 mph N/A   Mostly Cloudy
8:35 PM 53.6 °F - 50.0 °F 88% 29.99 in 10.0 mi East 12.7 mph - N/A   Scattered Clouds
8:55 PM 53.6 °F - 50.0 °F 88% 29.98 in 10.0 mi East 12.7 mph - N/A   Clear
9:15 PM 53.6 °F - 50.0 °F 88% 29.98 in 10.0 mi East 12.7 mph 17.3 mph N/A   Clear
9:35 PM 53.6 °F - 50.0 °F 88% 29.97 in 10.0 mi East 15.0 mph 20.7 mph N/A   Clear
9:55 PM 53.6 °F - 50.0 °F 88% 29.97 in 10.0 mi East 12.7 mph - N/A   Clear
10:15 PM 53.6 °F - 50.0 °F 88% 29.98 in 10.0 mi East 13.8 mph 18.4 mph N/A   Clear
10:35 PM 53.6 °F - 50.0 °F 88% 29.98 in 10.0 mi East 12.7 mph 17.3 mph N/A   Clear
10:55 PM 53.6 °F - 50.0 °F 88% 29.98 in 10.0 mi East 12.7 mph 20.7 mph N/A   Clear
11:15 PM 53.6 °F - 50.0 °F 88% 29.97 in 10.0 mi East 12.7 mph 18.4 mph N/A   Clear
11:35 PM 53.6 °F - 50.0 °F 88% 29.96 in 10.0 mi East 13.8 mph - N/A   Clear
11:55 PM 55.4 °F - 50.0 °F 82% 29.95 in 10.0 mi ESE 16.1 mph 23.0 mph N/A   Clear